Location: Austin
(30.3000°N, 97.7500°W)
Time: 02:43:21
(UTC-05:00)

Atlas Centaur 2 - Pass Details

Date: 20 April 2024
Orbit: 458 x 1278 km, 30.4° (Epoch: 29 May)

Event Time Altitude Azimuth Distance (km) Brightness Sun altitude
Rises 22:48:07 0° 276° (W) 3,339 6.0 -32.6°
Reaches altitude 10° 22:50:55 10° 275° (W) 2,261 5.0 -33.0°
Enters shadow 22:53:18 26° 274° (W) 1,358 3.6 -33.4°
